星链-33799 (STARLINK-33799)

导读

STARLINK-33799是美国SpaceX星链卫星互联网项目的卫星,于2025年4月4日发射升空。它是星链低轨卫星星座的组成部分,同批次发射的星链卫星延续了星座组网的推进节奏,这类卫星旨在为全球范围用户提供低延迟、高速率的宽带互联网服务,进一步扩充星链星座的全球覆盖与服务能力。

Basic Information
目录编号:
63447
目录名称:
STARLINK-33799
国际标识:
2025-069Q
轨道中心:
EARTH
卫星名称:
星链-33799
卫星全名:
星链-33799 (STARLINK-33799)
卫星状态:
在轨 (已飞行518 天)
发射日期:
2025-04-04 UTC
国别 :
美国 (US)
星等 :
--
Orbit Information
数据来源 国际轨道数据
星历时间: 2026-09-04T00:18:04+0800
14小时前
查看轨道信息
半长轴: 6840.854km
偏心率: 0.0000953
轨道倾角: 53.161°
近地点辐角 58.677°
升交点赤经 34.461°
平近点角 301.433°
近地点: 462.065km
远地点: 463.369km
周期: 93.848分钟
每日圈数: 15.343957
Detailed Information
固有亮度:
5
最大亮度:
2.5
卫星平台:
Starlink V1.0
覆盖范围:
全球
运营商:
太空探索技术公司
运营商所在国:
美国
制造商(研发单位):
太空探索技术公司
制造商所在国:
美国
使用方式:
暂无
Satellite Introduction
Starlink 计划是 SpaceX 推出的全球卫星互联网项目,通过发射低轨道卫星,为全球尤其是偏远地区提供高速、低延迟的互联网服务。自 2019 年起,Starlink 已部署数千颗卫星,旨在缩小全球数字鸿沟,推动互联网普及。该项目还为军事、航空等行业提供通信支持,带来广泛经济效益。
2D Orbit Map
3D Orbit Map
Orbit Altitude Analysis Chart
Orbit Inclination Analysis Chart
Orbit Comprehensive Analysis Chart
View Comprehensive Chart
Conjunction Data List
Event ID Objects TCA Miss Dist (km) Collision Risk Probability Collision Risk Index (CRI) Action
CDM_260904-055105-477306-344723
2026-09-04T
05:51:50+0000
0.284 km
中距离
4.159249E-4 高风险 0.87
CDM_260904-190905-477306-344721
2026-09-04T
19:09:04+0000
0.676 km
远距离
6.131125E-5 中风险 0.71
CDM_260905-105506-344706-593721
2026-09-05T
10:55:25+0000
1.137 km
极远距离
4.989827E-6 低风险 0.49
CDM_260905-122906-344706-593721
2026-09-05T
12:29:12+0000
1.181 km
极远距离
4.39511E-6 低风险 0.48
CDM_260904-041805-477306-344723
2026-09-04T
04:18:02+0000
2.060 km
极远距离
1.770172E-6 低风险 0.4
CDM_260904-001205-181406-344721
2026-09-04T
00:12:53+0000
2.725 km
极远距离
1.339514E-6 低风险 0.38
CDM_260904-072505-477306-344722
2026-09-04T
07:25:37+0000
2.649 km
极远距离
1.089356E-6 低风险 0.36
CDM_260904-173505-477306-344721
2026-09-04T
17:35:16+0000
2.773 km
极远距离
1.02101E-6 低风险 0.35
CDM_260904-204205-477306-344721
2026-09-04T
20:42:51+0000
2.894 km
极远距离
9.663006E-7 极低风险 0.35
CDM_260905-092106-344706-593721
2026-09-05T
09:21:37+0000
2.816 km
极远距离
5.37433E-7 极低风险 0.3